Satellite-Ground Cal/Val Region Overpasses Predictions

Prediction of Satellite NPP Overpassing Cal/Val Region: PacNW

Region Location: (Latitude: 10.00, Longitude: 139.50) to (Latitude: 22.70, Longitude: 165.60).

Table of predicted overpasses for the next 14.0 days since TLE Epoch: 5/11/2018
Interval Starting Time Starting Location Ending Time Ending Location
1 05/12/2018 02:20:10 ( 10.01, 164.66) 05/12/2018 02:23:46 ( 22.69, 161.64)
2 05/12/2018 14:52:04 ( 22.66, 161.89) 05/12/2018 14:55:39 ( 10.04, 158.88)
3 05/13/2018 03:42:39 ( 10.03, 144.03) 05/13/2018 03:46:14 ( 22.66, 141.03)
4 05/13/2018 14:34:15 ( 18.36, 165.59) 05/13/2018 14:36:37 ( 10.02, 163.64)
5 05/13/2018 16:14:31 ( 22.70, 141.28) 05/13/2018 16:16:36 ( 15.36, 139.50)
6 05/14/2018 03:23:37 ( 10.05, 148.79) 05/14/2018 03:27:12 ( 22.68, 145.78)
7 05/14/2018 15:55:30 ( 22.68, 146.03) 05/14/2018 15:59:05 ( 10.06, 143.03)
8 05/15/2018 03:04:35 ( 10.01, 153.56) 05/15/2018 03:08:11 ( 22.69, 150.54)
9 05/15/2018 15:36:28 ( 22.66, 150.79) 05/15/2018 15:40:03 ( 10.04, 147.78)
10 05/16/2018 02:45:33 ( 10.03, 158.31) 05/16/2018 02:49:08 ( 22.66, 155.30)
11 05/16/2018 15:17:26 ( 22.70, 155.55) 05/16/2018 15:21:02 ( 10.02, 152.54)
12 05/17/2018 02:26:32 ( 10.05, 163.06) 05/17/2018 02:30:07 ( 22.68, 160.06)
13 05/17/2018 14:58:24 ( 22.68, 160.31) 05/17/2018 15:02:00 ( 10.00, 157.29)
14 05/18/2018 02:10:11 ( 19.53, 165.59) 05/18/2018 02:11:05 ( 22.70, 164.81)
15 05/18/2018 03:48:59 ( 10.02, 142.45) 05/18/2018 03:52:30 ( 22.41, 139.51)
16 05/18/2018 14:39:23 ( 22.66, 165.06) 05/18/2018 14:42:58 ( 10.04, 162.06)
17 05/18/2018 16:20:53 ( 22.65, 139.68) 05/18/2018 16:21:05 ( 21.95, 139.51)
18 05/19/2018 03:29:58 ( 10.04, 147.21) 05/19/2018 03:33:33 ( 22.66, 144.20)
19 05/19/2018 16:01:50 ( 22.69, 144.45) 05/19/2018 16:05:26 ( 10.01, 141.43)
20 05/20/2018 03:10:55 ( 10.00, 151.97) 05/20/2018 03:14:31 ( 22.68, 148.96)
21 05/20/2018 15:42:49 ( 22.67, 149.21) 05/20/2018 15:46:24 ( 10.05, 146.20)
22 05/21/2018 02:51:54 ( 10.02, 156.73) 05/21/2018 02:55:29 ( 22.65, 153.72)
23 05/21/2018 15:23:48 ( 22.65, 153.96) 05/21/2018 15:27:23 ( 10.03, 150.96)
24 05/22/2018 02:32:52 ( 10.04, 161.48) 05/22/2018 02:36:27 ( 22.67, 158.48)
25 05/22/2018 15:04:45 ( 22.69, 158.73) 05/22/2018 15:08:21 ( 10.01, 155.71)
26 05/23/2018 02:14:38 ( 12.83, 165.60) 05/23/2018 02:17:26 ( 22.69, 163.23)
27 05/23/2018 03:55:20 ( 10.01, 140.87) 05/23/2018 03:57:00 ( 15.89, 139.51)
28 05/23/2018 14:45:44 ( 22.67, 163.48) 05/23/2018 14:49:19 ( 10.05, 160.48)
29 05/24/2018 03:36:18 ( 10.03, 145.63) 05/24/2018 03:39:53 ( 22.66, 142.62)
30 05/24/2018 14:29:50 ( 11.61, 165.59) 05/24/2018 14:30:17 ( 10.03, 165.23)
31 05/24/2018 16:08:12 ( 22.64, 142.86) 05/24/2018 16:11:47 ( 10.02, 139.85)
32 05/25/2018 03:17:17 ( 10.06, 150.38) 05/25/2018 03:20:52 ( 22.68, 147.37)


NCC Satellite Cal/Val Overpasses Prediction Service
